Overview Statistics Trail Chart Weather Telemetry Raw packets
 

This is the latest recevied weather packets stored in our database for station/object BG5HLN-13. If no packets are shown the sender has not sent any weather packets the latest 10 day(s).

<< 36 37 38 39 40 41 42 >>
Time Temp. Humidity Pressure Rain* Wind** Luminosity Snow
1788062188 33.89° C 87% 1001.7 hPa 0 mm - - -
1788061589 32.78° C 89% 1001.8 hPa 0 mm - - -
1788060988 32.22° C 89% 1001.9 hPa 0 mm - - -
1788060388 32.22° C 88% 1002 hPa 0 mm - - -
1788059788 32.78° C 88% 1002.3 hPa 0 mm - - -
1788059188 32.78° C 87% 1002.3 hPa 0 mm - - -
1788058588 32.78° C 87% 1002.2 hPa 0 mm - - -
1788057987 33.33° C 87% 1002.3 hPa 0 mm - - -
1788057388 33.33° C 87% 1002.3 hPa 0 mm - - -
1788056788 33.33° C 88% 1002.3 hPa 0 mm - - -
1788056187 32.78° C 89% 1002.3 hPa 0 mm - - -
1788055588 32.78° C 90% 1002.3 hPa 0 mm - - -
1788054988 32.22° C 91% 1002.4 hPa 0 mm - - -
1788054387 32.22° C 93% 1002.4 hPa 0.76 mm - - -
1788053787 31.67° C 93% 1002.4 hPa 1.78 mm - - -
1788053187 31.11° C 93% 1002.5 hPa 4.83 mm - - -
1788052588 31.11° C 93% 1002.5 hPa 5.59 mm - - -
1788051987 31.11° C 93% 1002.6 hPa 9.91 mm - - -
1788051387 31.11° C 94% 1002.5 hPa 10.41 mm - - -
1788050788 30.56° C 94% 1002.3 hPa 9.91 mm - - -
1788050187 30.56° C 94% 1002.3 hPa 9.14 mm - - -
1788049587 30.56° C 94% 1002.3 hPa 6.6 mm - - -
1788048987 30.56° C 94% 1002.4 hPa 7.37 mm - - -
1788048387 31.11° C 94% 1002.3 hPa 4.57 mm - - -
1788047786 31.11° C 93% 1002.4 hPa 3.81 mm - - -

* Rain latest hour (hover to see other rain measurements)
** Current wind speed in m/s (hover to see current wind gust speed)